Wind_Speed
4 6 7 5 3 2 3 4 3 2 1 4 2 3 5 3 2 4 5 3 2 5 8 11 11 11 8 8 11 13 16 14 3 10 17 21 23 26 29 33 36 37 38 38 38 38 37 36 36 36 36 36 36 35 34 32 32 32 32 32 32 31 30 29 28 26 25 23 22 20 18 18 18 17 15 15 14 14 13 14 15 14 12 12 10 8 8
3 7 7 5 5 2 1 2 3 3 2 6 5 3 4 3 3 4 4 5 4 5 5 8 11 12 10 13 17 18 20 17 4 12 19 22 25 27 29 32 35 36 37 37 37 37 36 36 36 36 36 36 36 35 33 31 30 30 31 31 30 29 28 26 24 23 22 22 21 20 19 19 18 16 15 14 13 12 11 12 13 12 10 9 7 6 6
1 3 3 3 5 3 0 1 3 5 3 5 4 2 3 3 3 4 5 4 3 4 4 7 11 13 13 16 17 17 21 20 10 8 14 19 23 25 27 28 31 32 33 33 34 34 36 36 36 36 36 36 35 34 33 31 30 29 29 29 28 26 25 23 21 20 20 21 20 20 20 18 18 16 13 13 13 11 11 11 11 11 10 8 6 5 5
1 2 3 1 3 2 0 2 6 7 4 3 3 2 3 3 3 6 6 4 4 6 6 7 9 11 12 12 13 17 21 21 15 9 9 14 18 21 23 25 27 29 29 30 31 31 32 32 32 32 33 33 34 34 33 31 31 30 29 27 26 24 22 20 19 19 19 20 21 21 20 18 17 15 13 13 12 10 10 10 10 11 10 8 6 5 5
1 3 4 3 3 3 0 2 3 4 2 1 2 2 3 3 2 3 4 3 4 6 7 8 9 9 10 9 12 18 21 19 17 13 9 12 16 18 21 24 24 25 26 27 27 27 27 27 27 27 28 28 29 30 30 30 30 29 28 26 24 21 19 17 17 17 17 18 18 18 17 16 16 15 14 15 13 11 10 9 10 11 9 7 6 5 3
1 5 5 4 5 3 2 3 1 1 2 2 1 2 2 4 2 2 3 4 6 6 7 7 8 8 9 11 15 20 22 19 15 13 11 11 14 17 18 21 22 23 24 24 24 25 26 26 26 25 25 24 25 25 25 25 25 24 24 22 20 18 16 15 15 15 15 15 14 14 14 15 14 14 17 17 11 8 10 10 11 9 7 7 6 3 1
1 4 4 6 2 2 4 4 3 3 4 3 3 3 2 3 3 4 5 7 8 8 7 8 9 11 12 15 21 24 22 19 15 13 13 11 12 16 18 20 21 21 23 23 23 25 26 26 27 26 25 25 25 24 23 22 21 21 20 19 18 16 13 12 13 13 14 15 14 14 17 17 12 12 16 15 10 9 12 11 9 7 6 7 5 1 1
0 2 4 3 2 5 5 5 3 1 0 1 1 2 2 1 4 6 7 8 9 8 8 10 11 10 12 18 23 25 22 18 15 12 13 13 11 12 15 18 19 20 22 23 24 24 24 24 25 24 24 24 24 24 23 21 21 21 21 21 19 15 12 11 12 13 14 15 14 15 19 19 16 14 14 12 11 13 13 10 7 7 7 6 4 2 1
2 2 2 1 2 3 4 4 2 2 2 1 2 1 1 1 4 5 5 6 8 7 8 12 9 9 14 14 17 24 23 17 14 11 11 14 14 13 12 14 16 16 19 21 22 22 21 22 22 22 21 20 19 19 19 18 18 19 20 20 19 16 13 12 13 14 15 15 15 16 20 22 22 20 15 11 12 13 11 9 8 8 7 6 5 4 3
2 3 2 2 4 2 3 4 4 4 4 4 2 2 2 4 5 7 5 5 7 7 8 10 8 10 12 7 10 20 22 15 12 10 9 12 16 16 15 15 15 15 16 17 18 19 19 20 20 20 20 19 18 17 19 19 19 21 21 20 18 17 14 13 13 14 15 15 15 16 19 22 23 19 13 10 12 11 10 9 9 9 8 7 5 4 2
2 4 3 1 2 0 3 4 7 8 5 3 1 4 4 5 8 12 9 4 5 6 7 8 6 9 7 3 7 16 18 13 10 8 9 11 14 16 16 16 16 16 17 16 16 16 16 17 18 18 19 19 19 20 23 23 22 22 21 19 17 15 13 13 14 14 15 14 14 17 20 20 17 13 11 14 15 14 12 11 11 10 9 6 5 4 4
2 3 1 0 1 1 1 4 8 12 9 4 4 4 3 5 9 15 12 6 7 8 8 8 7 7 2 2 4 10 10 8 8 8 9 10 11 13 15 16 15 15 16 15 15 15 13 13 15 16 17 18 19 22 24 23 22 20 18 16 14 13 13 13 13 13 14 13 14 18 19 15 10 11 13 16 18 16 15 14 12 10 8 5 6 8 8
2 2 1 1 2 2 2 5 11 14 8 4 4 1 4 6 10 12 10 7 8 10 10 9 7 3 1 2 2 3 3 5 8 8 9 10 10 10 13 15 15 15 15 14 15 15 13 12 13 15 16 17 18 19 20 20 19 17 16 14 13 12 13 13 14 15 15 14 13 15 15 11 10 13 16 16 16 16 15 13 11 10 7 8 9 10 8
2 2 1 1 2 2 3 10 14 10 3 2 0 2 3 6 8 7 6 6 6 8 9 9 8 4 1 2 4 3 4 8 10 10 11 11 11 11 11 11 13 14 15 15 15 15 15 15 15 15 15 15 14 14 15 16 15 14 14 13 12 12 14 15 16 17 16 15 13 13 13 13 14 15 16 15 15 14 13 11 11 9 8 10 10 8 6
2 2 2 2 0 2 7 12 9 3 2 2 3 2 2 3 4 4 5 6 6 8 8 8 8 6 4 5 8 8 9 10 12 14 14 14 14 13 11 11 10 12 13 13 13 13 13 13 14 14 15 14 13 12 11 12 13 13 12 12 14 17 19 19 18 17 16 15 13 13 14 15 15 16 17 16 15 13 12 11 11 11 12 11 10 9 7
2 3 2 1 3 6 10 8 3 1 2 1 3 3 1 0 1 3 6 7 7 8 9 9 10 9 7 8 10 11 11 11 14 16 17 17 16 15 14 12 10 10 12 12 11 10 9 8 8 10 11 12 13 13 12 12 13 13 13 15 18 20 20 19 17 15 14 14 13 13 13 14 15 17 18 17 15 14 13 13 13 14 13 12 11 10 8
1 1 1 3 5 6 5 3 2 2 3 1 2 2 1 1 2 5 6 6 6 8 11 12 12 12 12 13 14 14 13 13 14 15 17 18 17 15 15 14 12 12 12 12 11 10 9 7 7 8 9 11 12 13 12 12 12 15 16 17 20 21 20 18 17 16 16 15 14 14 14 13 15 18 18 16 14 12 13 13 13 13 13 11 10 9 8
1 1 5 7 6 8 10 10 9 9 8 6 5 4 3 2 5 7 8 7 8 10 13 16 17 17 16 17 19 18 17 17 16 15 16 17 17 16 15 15 14 14 14 13 11 10 9 7 6 6 6 7 8 9 11 12 12 15 16 16 19 22 20 21 20 18 17 16 15 15 14 14 15 16 14 13 11 9 9 8 8 9 9 7 5 6 7
1 2 7 8 9 14 17 15 15 16 15 13 10 9 8 6 8 9 9 11 13 14 17 21 23 22 22 23 23 21 20 21 20 19 19 19 18 17 16 14 14 15 16 17 16 14 12 10 8 7 7 6 4 3 7 10 12 16 17 16 19 20 19 20 20 19 17 16 16 17 16 16 16 15 13 11 9 8 7 6 6 7 8 7 6 6 7
2 0 6 9 13 21 24 19 16 17 18 18 15 12 11 11 11 13 14 16 17 19 21 24 26 27 27 28 28 27 25 25 25 25 25 23 21 20 18 16 16 18 19 19 19 18 16 14 12 12 12 11 9 7 6 4 7 12 14 13 12 12 13 12 13 14 15 16 18 19 18 17 16 15 13 11 9 7 6 5 4 5 5 5 4 4 4
2 2 8 11 9 15 21 20 17 16 16 17 18 16 14 13 13 15 18 18 17 18 21 22 24 27 27 26 27 28 28 27 27 28 29 29 27 25 24 22 22 21 21 20 20 19 18 16 15 15 15 14 12 10 9 7 4 4 6 6 6 8 9 8 9 12 14 16 18 19 19 18 17 16 14 12 10 9 8 7 6 5 5 4 2 2 2
2 2 6 8 4 5 12 16 17 17 14 14 17 18 16 13 13 13 14 15 15 16 19 21 22 25 27 25 25 25 25 23 23 23 24 27 27 26 26 26 25 25 24 22 21 21 19 17 16 16 16 14 12 11 9 8 7 8 8 7 7 9 9 8 8 10 12 15 17 16 14 14 13 13 13 13 12 11 10 9 8 8 7 6 6 5 3
3 5 7 6 2 3 10 17 19 19 16 15 16 16 16 15 14 11 11 14 15 17 20 22 22 24 24 23 23 24 24 23 21 19 19 20 21 21 21 22 23 24 24 22 21 21 20 17 16 17 16 15 13 11 10 9 9 10 10 10 9 10 9 8 8 6 6 9 11 10 8 7 7 7 7 7 7 6 6 6 7 7 8 8 9 9 7
4 7 7 7 7 9 14 19 20 19 18 17 16 15 16 18 17 14 13 16 18 18 20 21 21 21 21 21 21 23 23 21 20 19 19 19 18 17 17 17 17 17 18 19 19 19 18 17 16 15 15 15 13 12 10 10 9 9 9 8 9 10 10 8 8 7 6 6 7 7 7 6 5 5 4 5 5 5 5 5 6 7 8 9 9 8 8
6 8 10 12 14 15 16 17 18 17 16 17 17 17 15 15 15 15 15 18 19 19 20 20 19 19 19 19 20 21 21 21 21 21 22 22 20 18 16 14 14 13 13 12 12 11 12 13 13 13 14 15 14 13 12 11 8 7 6 5 6 7 7 6 6 7 8 7 7 8 7 6 5 4 4 4 5 5 6 7 8 9 8 8 8 8 8
6 8 11 14 15 14 14 15 15 16 15 14 15 16 14 13 15 15 15 16 18 17 18 18 18 17 18 18 19 20 22 23 23 23 23 23 22 21 19 16 14 13 10 8 7 6 6 6 6 7 8 10 10 10 10 10 8 7 7 6 6 6 7 7 7 7 7 7 6 7 6 6 5 4 4 5 6 6 7 7 7 7 6 6 6 7 7
5 6 8 10 11 13 14 14 13 13 12 12 12 13 13 12 14 13 12 13 15 14 15 16 16 16 17 17 18 20 21 22 22 22 23 24 23 23 21 19 16 15 13 12 10 8 5 3 1 0 2 3 3 3 3 3 3 3 3 3 4 4 5 6 6 6 6 6 5 5 5 5 5 5 5 6 7 7 6 4 4 4 4 4 6 7 7
10 8 7 8 10 11 12 12 11 11 12 12 11 11 11 10 10 9 9 12 13 13 14 15 15 16 16 16 17 18 19 19 20 20 21 22 22 21 20 18 18 18 17 17 16 14 11 9 6 4 4 4 2 2 3 4 5 6 6 5 5 5 4 4 4 4 4 4 4 4 4 5 6 6 7 7 7 5 3 3 3 2 3 4 6 7 8
11 11 12 13 13 11 11 12 12 12 14 13 12 11 11 12 13 12 10 9 10 11 13 14 15 16 16 15 15 17 17 17 18 19 20 20 19 19 18 17 17 19 20 21 20 17 16 14 12 11 10 8 6 4 2 1 3 5 6 6 6 6 6 6 5 5 5 5 5 5 5 5 5 6 6 6 5 2 2 3 2 1 2 3 5 8 10
9 9 11 11 11 10 12 14 13 13 14 13 13 14 15 15 17 18 15 11 10 11 12 13 14 15 15 15 15 15 16 16 17 17 18 18 18 18 17 15 16 19 21 21 21 19 17 17 16 15 15 13 11 9 7 5 4 3 2 2 3 3 4 4 3 2 2 2 3 3 3 4 4 5 5 4 3 2 2 3 3 2 3 5 7 9 11
8 9 9 9 10 11 13 13 13 13 14 13 13 15 16 16 18 19 18 16 12 11 10 11 13 14 15 15 14 14 14 14 15 16 16 17 18 18 17 15 17 20 21 20 20 19 17 16 16 16 15 14 12 10 9 7 6 4 3 3 2 2 3 3 3 2 1 1 0 1 1 2 1 1 2 2 2 3 3 4 5 4 6 8 10 11 12
7 9 10 9 10 11 12 12 12 13 14 14 13 15 16 17 18 18 18 18 16 11 7 8 11 12 13 12 12 12 13 13 14 14 14 15 17 19 19 17 17 18 19 18 18 17 15 15 15 15 13 12 11 10 9 8 7 6 4 4 3 3 4 4 3 3 2 2 2 1 1 1 1 1 2 2 2 4 5 6 6 7 8 10 11 12 13
6 8 9 9 10 12 13 14 13 12 12 12 13 14 14 14 15 16 15 15 16 15 11 7 8 9 9 9 8 9 10 11 12 11 12 13 15 17 18 18 17 16 16 16 16 15 14 15 15 14 13 12 11 10 9 8 8 7 6 6 5 4 4 4 4 3 3 4 4 4 3 3 3 3 4 4 5 6 7 7 8 10 11 12 13 14 15
8 9 9 9 10 11 13 14 14 13 11 11 11 12 14 14 15 15 14 13 14 16 16 12 6 6 7 6 5 6 8 9 10 10 10 11 12 13 15 16 16 16 15 14 13 13 14 16 15 15 14 14 13 12 10 8 8 7 7 7 7 7 6 5 5 4 4 4 6 6 6 6 6 6 7 8 8 8 7 8 10 12 14 15 16 17 17
9 9 9 9 9 10 12 15 15 13 11 10 11 13 14 14 13 14 14 14 14 14 14 14 11 5 5 4 3 5 7 8 8 8 8 8 9 10 12 13 14 14 13 12 12 13 14 15 15 15 15 15 15 14 11 8 8 8 9 10 10 10 9 8 7 6 5 4 6 7 7 8 8 8 9 9 9 8 8 9 11 12 14 16 18 19 19
8 9 8 7 8 9 12 13 13 11 10 10 11 12 12 11 11 12 14 14 14 13 12 13 12 8 6 5 4 5 6 6 6 7 7 5 5 7 8 10 10 11 11 11 12 13 13 13 13 14 14 14 14 14 12 9 9 11 12 12 12 11 11 10 9 8 7 6 5 6 7 8 9 10 10 10 10 9 8 10 13 13 14 15 17 18 19
8 9 9 7 7 9 11 12 11 10 10 9 9 10 11 11 11 12 12 11 11 12 12 11 11 11 9 7 6 5 6 5 3 5 6 4 3 3 5 6 6 7 9 11 12 12 12 11 12 12 13 13 13 12 11 10 11 12 12 13 13 12 11 11 10 9 8 7 6 5 7 8 10 11 11 10 10 9 9 11 13 13 14 16 17 19 20
6 9 9 7 7 8 10 11 10 10 9 8 8 9 10 10 10 10 9 7 7 9 11 12 12 12 10 7 5 6 6 5 4 5 5 3 1 2 4 5 3 3 6 9 10 10 10 11 11 11 12 12 12 10 9 10 11 12 12 12 12 12 12 11 11 10 9 8 7 6 7 8 10 11 12 11 10 9 10 11 12 14 16 18 19 20 21
5 6 8 7 6 6 8 10 11 10 9 7 8 9 10 9 9 8 7 5 5 7 10 11 11 11 11 8 5 5 5 6 6 6 5 4 3 4 5 4 1 3 4 6 7 7 7 9 9 10 10 11 11 9 9 9 11 12 12 11 11 12 12 12 12 11 10 9 7 7 7 8 10 11 12 11 10 10 11 13 14 16 18 20 21 21 21
5 4 5 6 5 3 4 6 9 10 9 8 7 8 9 9 9 8 6 5 5 6 8 9 9 9 9 9 6 4 4 4 5 4 4 4 4 5 5 4 3 4 4 5 5 4 4 6 8 8 9 9 10 9 7 8 9 10 10 9 10 11 12 13 12 11 10 9 8 6 6 7 9 11 12 11 10 11 13 15 16 18 20 21 21 21 20
4 3 4 7 6 3 3 4 6 8 9 9 8 8 9 9 8 8 7 7 6 6 6 7 7 7 6 6 6 5 5 4 4 3 2 3 4 4 4 3 3 3 3 3 3 3 3 4 5 6 7 8 8 7 6 6 7 7 7 7 7 9 11 12 12 11 10 10 8 7 5 5 8 10 12 12 12 14 15 17 18 20 20 20 20 19 18
2 2 3 6 6 4 4 5 5 6 8 9 8 8 9 8 7 7 8 8 8 8 7 7 6 5 3 4 6 6 5 5 3 3 2 2 2 3 3 2 2 2 2 1 1 2 2 2 3 4 5 6 6 6 5 4 5 5 5 5 4 6 9 11 11 11 10 10 9 8 6 5 7 9 11 13 15 16 17 18 19 20 19 18 17 16 15
3 2 3 5 6 5 5 5 5 5 7 8 8 8 8 7 7 8 8 9 9 8 7 7 6 4 3 3 5 5 4 4 5 5 5 4 3 2 2 2 2 1 1 1 1 1 1 1 2 3 4 4 4 5 4 3 3 4 4 3 2 4 7 9 11 10 10 10 10 9 7 6 7 9 12 14 15 16 17 17 18 18 17 16 15 15 16
3 3 4 4 5 6 5 4 4 5 6 7 8 8 8 8 8 7 7 8 8 7 5 5 5 5 4 4 3 3 3 4 5 6 5 4 4 3 2 2 2 2 1 1 1 1 1 1 2 2 3 3 2 2 3 3 2 3 3 3 1 1 4 6 8 9 9 9 9 10 9 8 8 11 13 14 15 16 16 16 15 15 15 14 14 16 19
2 3 4 5 5 5 5 4 4 5 5 6 6 6 6 6 5 5 7 9 10 8 5 4 4 5 5 5 4 3 3 5 7 7 6 4 4 3 1 0 1 1 1 1 2 2 2 2 2 2 2 2 1 1 1 2 2 2 2 3 4 2 1 3 5 7 8 8 8 9 10 10 10 12 13 13 14 14 14 13 12 12 13 14 16 18 20
1 3 5 6 6 5 5 5 4 4 4 5 5 4 3 3 5 6 7 9 11 11 8 5 4 5 5 4 3 3 3 5 6 6 5 5 4 3 2 2 2 2 3 3 3 3 3 4 3 2 2 2 2 2 2 1 1 2 2 2 4 5 3 0 2 3 5 6 7 8 9 10 11 12 13 13 13 13 13 12 12 13 15 17 19 20 21
3 2 3 5 5 4 5 6 5 3 4 5 5 5 5 4 5 6 7 8 11 13 11 7 5 4 4 3 3 3 3 2 3 3 4 4 4 3 2 2 4 4 4 4 3 3 4 4 4 3 2 2 2 2 2 1 1 2 2 2 3 5 6 5 2 1 1 3 5 7 8 9 10 11 12 13 13 14 15 15 15 16 18 20 21 21 21
4 4 4 4 5 5 6 6 5 4 4 4 5 6 5 3 4 6 7 7 10 12 12 9 6 5 4 4 4 5 5 5 3 1 0 1 1 1 2 3 5 5 3 3 3 3 4 4 5 4 3 3 3 3 3 2 2 3 4 3 3 5 7 8 7 5 3 2 4 6 7 8 10 11 12 14 15 16 16 16 16 18 20 22 22 21 20
5 4 3 4 5 7 8 7 5 4 4 4 5 6 6 5 4 5 6 7 9 11 12 10 8 7 6 5 5 4 5 6 5 4 3 3 2 2 2 3 4 4 3 3 4 5 4 5 5 5 4 4 4 5 5 4 4 5 5 4 4 5 7 8 9 8 5 4 5 6 7 8 9 12 15 16 16 15 14 15 16 18 19 20 20 19 17
6 5 5 5 5 6 8 7 5 3 4 5 5 6 6 6 5 5 5 5 6 9 10 9 8 7 7 7 6 4 4 5 6 5 3 3 3 3 3 3 4 4 3 3 4 4 5 5 5 5 4 4 5 6 7 6 6 6 6 5 4 5 7 8 9 10 9 7 7 8 9 10 10 12 15 17 17 15 14 15 17 18 18 17 16 16 15
7 7 7 6 5 5 5 5 4 4 4 5 5 6 7 7 6 5 6 5 5 5 7 8 8 8 7 6 6 5 3 2 3 3 3 3 4 6 6 6 5 4 3 1 1 1 2 3 4 5 4 4 4 5 5 6 6 7 6 5 5 5 7 8 8 10 10 9 9 9 11 12 12 13 14 16 17 17 17 17 18 19 18 15 14 14 14
8 8 9 9 8 6 6 5 6 6 7 7 7 7 8 8 8 7 7 6 5 5 5 6 7 8 7 6 6 5 4 3 3 3 3 3 4 6 6 6 5 4 3 2 1 0 1 2 2 2 2 2 3 3 3 4 6 6 5 5 6 6 7 8 9 10 11 11 11 11 12 13 13 13 13 14 16 19 20 20 20 18 16 13 13 13 13
Wind_Direction
243 230 246 245 221 206 211 262 299 88 48 322 307 241 249 212 155 262 285 339 291 287 337 342 328 328 336 354 1 360 358 355 348 170 169 171 176 181 184 185 188 191 193 195 196 196 197 196 197 200 203 207 209 211 213 216 217 218 220 223 225 226 228 230 231 232 233 235 237 238 236 235 237 242 246 250 259 267 269 274 279 282 285 290 296 302 306
242 234 248 232 217 233 166 264 312 55 37 299 285 272 287 266 221 246 312 338 289 262 318 330 319 318 339 10 10 8 11 13 44 160 163 167 172 179 184 187 189 192 194 195 194 195 194 195 198 200 203 207 209 210 213 216 217 219 221 222 224 227 228 229 231 231 232 233 233 231 229 229 233 237 239 244 256 264 265 270 279 286 290 294 296 298 306
218 251 266 222 219 239 88 48 21 49 31 314 318 354 340 332 314 318 345 351 305 285 318 330 325 332 359 16 9 6 15 21 40 132 156 164 170 176 182 187 188 190 192 192 192 193 194 197 199 201 204 206 208 210 213 214 216 219 221 223 226 228 228 229 230 230 231 230 227 225 223 223 228 230 231 237 245 253 260 263 272 283 288 293 294 295 308
97 310 332 311 214 207 51 8 16 25 18 348 357 342 332 355 344 335 354 9 330 319 333 337 333 347 9 13 358 359 12 25 43 72 125 153 165 173 179 184 187 188 190 191 192 192 193 195 196 198 200 202 205 209 211 213 215 217 220 224 227 229 230 230 229 229 228 227 224 222 218 217 223 226 228 232 232 239 253 255 259 269 274 285 296 295 306
169 310 339 19 79 83 34 306 360 7 345 345 335 300 328 7 7 345 354 341 309 316 332 339 340 352 5 2 354 358 6 22 46 64 98 139 159 170 176 181 184 186 188 189 189 189 188 191 193 196 197 198 201 206 208 210 213 215 219 223 225 228 231 230 227 225 225 224 221 217 214 217 222 222 221 226 228 234 242 247 256 263 269 286 296 287 298
246 303 331 37 57 54 248 248 247 241 256 271 273 272 350 19 16 331 316 304 310 324 331 339 338 334 342 356 4 9 13 22 47 72 93 124 151 164 171 179 181 183 186 186 187 189 190 192 194 194 194 197 200 203 205 209 212 215 217 219 222 226 228 226 223 219 219 220 215 210 212 214 218 223 224 223 221 224 232 239 247 253 265 282 280 272 320
264 321 22 57 40 254 255 287 287 236 229 223 227 264 322 14 13 1 350 334 333 333 330 337 333 324 344 13 19 19 21 26 45 79 97 113 141 155 163 171 176 180 183 183 185 189 191 194 195 194 194 197 199 201 205 209 213 216 216 216 220 226 226 222 218 217 221 220 212 213 217 214 214 226 227 221 212 214 225 230 231 238 255 262 253 214 82
123 18 55 84 240 263 304 327 322 298 277 128 150 269 280 352 11 9 360 342 336 332 335 343 338 338 11 28 24 21 27 29 35 70 104 113 124 141 155 165 171 176 180 182 183 186 188 192 193 193 194 195 197 200 207 213 216 217 216 215 217 219 214 211 215 220 223 220 219 223 220 216 218 217 210 213 223 222 219 212 209 228 242 234 214 184 166
125 88 46 352 333 335 327 328 336 325 310 224 152 161 242 326 13 5 345 341 340 335 345 353 359 25 35 26 11 15 26 29 26 47 99 117 123 129 139 152 162 170 179 184 184 185 187 190 193 194 195 197 201 205 209 213 213 212 215 217 217 212 205 208 218 221 220 224 232 228 216 214 219 213 202 212 224 213 198 196 213 231 225 204 192 181 170
88 88 57 15 22 355 271 277 294 281 267 255 192 104 358 332 3 1 344 350 350 342 353 356 10 46 41 7 342 4 13 17 23 43 83 111 128 137 140 146 152 160 173 183 189 193 196 197 199 202 202 203 208 207 204 202 200 203 209 213 212 209 207 212 218 219 224 233 235 226 217 216 216 211 204 210 212 199 191 206 228 228 206 187 176 165 173
38 84 90 91 88 187 257 272 284 292 307 310 50 55 358 318 344 351 345 349 352 354 7 7 31 62 49 326 326 352 355 360 19 47 80 101 123 137 143 150 154 158 166 174 183 191 195 196 198 201 201 201 203 201 197 195 193 197 203 205 207 208 212 218 221 222 228 231 229 224 217 209 207 211 212 210 207 202 203 216 225 212 189 169 162 184 230
71 88 65 243 192 247 259 243 280 309 332 11 59 46 318 301 340 345 339 344 359 5 16 26 52 72 70 263 323 339 338 360 28 49 76 91 111 130 140 149 152 153 158 163 168 173 177 180 183 187 189 190 192 194 195 195 196 197 198 200 204 206 212 219 220 217 215 216 220 218 206 197 213 228 216 207 204 203 210 219 212 189 170 170 194 214 231
72 88 84 317 271 273 271 281 303 319 338 47 76 107 254 299 335 339 337 347 4 15 24 38 59 76 248 278 341 324 342 41 48 54 68 80 92 110 129 142 147 149 153 159 164 166 166 167 168 175 183 186 188 194 198 201 201 198 191 192 196 201 209 215 213 209 206 202 207 205 192 199 233 223 202 200 204 207 215 212 188 172 182 206 218 226 223
56 94 119 346 294 258 307 318 318 325 5 93 155 225 270 319 332 342 356 359 8 23 36 55 75 97 129 22 32 55 70 62 58 57 63 79 90 97 109 125 140 148 151 158 166 166 165 168 168 172 182 187 189 194 201 204 204 197 190 190 192 196 201 203 206 213 208 191 189 196 198 211 221 205 195 202 207 206 207 191 171 181 209 218 229 239 223
75 49 36 42 159 278 324 330 330 346 76 146 211 240 324 336 334 7 31 27 29 40 53 74 95 111 110 74 65 70 73 72 72 69 69 76 86 95 103 109 125 138 138 141 150 154 158 166 172 177 183 188 190 191 198 207 208 203 201 198 191 193 199 202 207 213 202 183 185 198 201 204 202 191 187 192 189 184 182 176 181 203 216 219 230 237 226
79 49 17 246 248 290 312 323 317 299 319 254 215 238 283 348 19 48 57 53 54 65 77 93 107 107 93 79 77 75 74 76 79 80 79 78 81 90 98 103 113 123 121 119 124 134 146 160 177 186 190 195 197 194 196 207 212 214 213 204 196 200 208 206 199 192 181 178 185 185 180 182 183 178 176 176 175 178 183 189 202 215 220 222 227 233 235
116 129 282 283 297 316 334 357 1 357 14 45 190 210 216 155 97 86 81 73 73 89 97 100 97 87 77 75 79 79 76 75 77 80 81 81 83 89 96 103 110 112 112 115 121 130 141 155 177 195 205 212 213 212 209 209 215 220 218 209 209 213 208 191 178 173 171 176 178 171 167 172 173 169 167 166 170 179 188 197 208 216 219 221 223 227 228
215 327 344 342 358 22 41 56 56 53 57 59 73 99 97 90 103 100 95 92 94 100 102 95 84 78 77 79 81 83 82 79 83 90 92 90 90 93 95 99 103 106 109 114 119 123 126 135 156 177 191 200 214 226 222 213 216 224 223 222 227 222 198 174 172 176 175 176 175 170 166 162 154 149 146 143 146 155 166 177 186 189 193 195 191 188 186
46 3 343 349 26 33 32 45 53 50 46 43 53 79 88 88 100 98 91 96 100 101 99 92 84 82 82 81 82 84 85 84 87 92 97 97 95 95 96 96 99 103 106 106 108 110 107 108 118 126 129 130 133 195 211 209 216 220 219 222 226 216 193 180 183 182 173 168 167 167 165 159 149 141 136 136 143 149 151 154 156 159 166 171 166 165 174
25 24 339 359 41 41 32 33 41 42 44 43 44 63 85 90 93 94 95 100 100 96 92 89 86 84 81 79 80 80 79 82 85 88 92 95 95 96 99 100 99 99 98 98 100 101 99 99 105 108 104 102 97 95 110 151 204 213 210 213 215 204 192 189 188 178 168 164 164 167 170 167 158 149 145 149 159 165 162 162 165 166 174 180 178 182 198
15 11 354 357 28 37 25 24 37 48 51 44 41 53 76 91 94 94 98 102 100 93 89 86 84 86 84 80 79 77 74 74 76 80 86 90 91 92 93 95 97 98 98 98 98 98 99 101 105 106 103 102 101 99 101 104 116 159 177 186 184 176 177 175 169 168 173 174 174 176 177 172 163 158 157 163 175 188 193 193 195 203 209 209 208 222 242
36 344 348 355 21 34 11 18 43 61 60 48 47 50 58 76 93 99 101 100 95 93 94 91 88 91 90 85 80 76 73 71 69 70 76 82 84 86 89 92 94 93 94 96 96 95 96 98 101 104 104 105 105 104 107 108 101 100 114 133 148 158 168 175 177 186 199 199 193 189 188 184 178 178 185 192 201 211 219 227 238 244 242 241 247 250 246
26 333 333 343 4 46 28 32 47 58 55 55 62 60 55 65 83 99 109 105 97 94 97 98 96 93 90 83 79 78 78 76 70 66 69 73 75 77 81 87 89 88 89 93 93 90 91 94 97 99 101 102 103 103 104 108 109 109 111 118 127 134 144 156 159 169 202 209 198 190 190 189 184 186 194 201 204 210 218 228 243 253 254 254 257 251 239
19 9 22 45 59 57 49 45 45 45 42 44 54 63 65 68 71 76 90 101 104 102 99 97 94 89 83 78 77 79 80 76 71 71 75 78 78 77 77 78 80 83 86 87 86 84 86 92 97 100 102 102 101 102 104 107 114 118 116 116 122 124 126 133 139 143 153 165 168 169 167 161 154 154 156 159 167 185 202 218 233 241 243 245 249 245 231
55 47 63 77 78 70 62 54 47 43 40 35 36 44 58 71 74 71 76 88 96 98 96 92 85 78 74 73 74 76 78 78 79 80 81 79 77 78 76 72 69 69 71 73 74 74 76 82 88 95 101 101 98 100 104 107 115 123 115 114 131 141 146 157 170 176 177 176 178 179 173 163 163 169 172 177 191 205 216 227 236 240 241 242 244 237 218
66 81 80 77 77 73 66 58 49 43 38 35 33 32 38 62 76 74 75 85 89 88 88 87 81 73 69 70 73 77 79 81 80 77 72 69 67 66 65 65 68 73 76 76 75 67 61 65 71 79 90 94 92 95 99 102 108 114 109 111 131 146 153 162 170 171 171 170 171 170 167 167 174 183 193 208 226 238 238 233 233 236 240 246 244 226 201
59 102 91 75 70 65 61 59 54 45 36 35 37 31 29 50 69 69 71 85 92 89 85 82 78 75 73 73 77 81 82 79 76 70 65 62 60 59 58 59 64 73 81 86 88 88 89 104 141 143 104 101 94 101 115 118 122 130 131 140 154 156 154 159 163 163 162 164 165 166 171 181 191 205 223 232 241 250 252 253 251 240 234 243 241 222 197
71 89 97 94 85 76 71 66 58 52 45 41 42 40 36 48 65 70 75 84 90 93 89 80 71 70 75 77 80 83 82 77 73 69 64 59 57 55 55 57 62 68 71 74 77 81 85 95 112 121 115 116 135 177 201 216 224 227 231 232 235 241 238 228 228 228 223 224 227 225 223 218 214 223 236 240 241 247 276 308 299 251 220 227 227 211 189
81 85 92 97 94 88 83 73 64 61 55 49 49 51 51 55 59 61 71 89 100 99 89 79 72 71 74 78 79 79 78 75 72 69 64 59 55 52 52 56 64 70 70 68 68 70 73 78 83 83 79 74 72 77 94 217 227 223 224 226 227 234 244 250 256 262 261 258 256 251 245 241 239 242 243 237 231 243 301 310 296 232 202 213 211 196 178
94 92 94 96 88 80 76 71 68 66 61 57 59 58 57 59 59 54 55 75 106 112 96 85 83 78 75 77 78 75 73 72 71 72 67 59 54 53 55 61 67 69 69 67 65 63 65 68 71 71 67 61 57 55 54 51 58 80 117 155 175 194 207 213 217 227 244 252 256 253 246 247 249 245 237 222 206 217 242 228 203 182 180 184 186 186 177
100 93 93 90 78 71 71 70 70 67 62 60 59 53 49 51 53 50 46 51 76 105 112 102 92 82 76 79 81 77 74 72 71 71 67 58 53 53 56 62 65 66 66 66 63 61 60 61 62 63 60 58 55 51 49 50 51 51 55 65 75 84 92 101 113 122 135 153 43 335 274 267 260 220 186 159 151 163 174 174 169 170 177 176 173 171 166
91 87 85 79 70 70 70 68 67 67 64 61 57 51 46 45 48 49 44 42 49 66 96 114 105 89 80 84 86 82 80 78 73 68 62 56 52 50 52 56 61 64 66 66 63 60 57 56 57 55 50 48 49 46 42 42 43 43 45 49 55 75 95 103 112 121 134 148 150 136 157 198 215 200 183 170 166 159 150 147 155 166 172 169 163 159 157
58 69 69 66 67 70 67 59 56 60 61 61 60 55 50 46 45 46 45 43 45 48 55 82 112 105 91 88 89 87 83 77 71 67 63 57 52 48 48 51 54 57 61 61 58 57 55 52 51 48 42 40 40 40 38 39 40 44 50 55 61 81 104 118 128 132 137 153 162 161 160 165 180 193 189 177 166 155 145 143 152 160 162 158 154 152 151
47 57 60 62 62 62 57 49 45 48 53 60 67 64 55 47 42 40 39 40 42 44 43 45 67 113 117 107 99 98 93 84 77 73 68 62 57 52 49 48 48 49 53 55 54 54 53 49 45 42 39 36 34 33 35 39 42 46 53 57 61 70 79 90 110 127 144 163 167 163 161 162 163 166 163 153 143 138 137 143 151 157 159 155 151 149 148
43 48 53 55 55 56 53 43 37 40 52 66 75 70 59 47 38 35 36 35 36 40 40 35 35 64 119 127 120 122 116 97 80 71 64 59 57 55 53 50 47 47 49 51 52 52 50 46 43 40 38 36 33 30 30 38 51 59 65 67 67 69 74 81 94 108 122 145 158 158 154 151 147 144 141 135 128 127 134 146 153 157 159 157 154 152 151
33 38 42 46 53 59 51 37 31 39 55 67 70 67 60 51 39 33 34 34 36 42 46 41 37 50 84 105 125 148 142 114 75 60 58 50 42 50 55 52 47 48 50 50 49 50 48 45 42 40 37 35 33 30 34 49 64 68 69 71 72 72 75 78 81 86 94 105 125 142 145 143 138 133 128 124 123 126 137 149 155 158 161 161 159 157 156
38 39 40 49 62 60 45 33 31 39 46 53 61 60 53 46 35 25 19 18 26 37 44 45 43 46 56 69 84 112 129 126 80 45 41 34 20 33 39 33 35 49 57 53 49 48 47 44 41 39 37 35 34 37 46 63 73 72 71 73 73 70 68 67 65 68 78 87 100 122 137 141 140 133 126 121 121 126 138 152 158 160 160 159 158 157 157
30 29 28 38 55 55 44 39 38 34 32 40 54 52 41 33 27 18 9 9 26 34 33 35 39 39 37 44 69 87 96 101 81 49 39 39 31 348 341 337 348 43 55 53 50 46 41 39 38 38 36 35 38 46 60 73 78 78 78 77 72 65 59 56 54 54 62 72 86 105 124 137 141 136 129 124 124 131 144 155 159 158 156 155 156 156 154
360 17 21 24 31 41 46 44 40 34 32 37 42 38 30 27 27 23 17 25 41 26 10 7 16 25 27 33 56 77 69 60 59 58 55 62 65 30 358 347 30 80 63 56 54 43 35 35 35 34 35 37 42 53 69 79 85 88 86 77 66 58 53 50 48 49 53 61 73 92 116 134 141 137 132 130 134 143 152 157 158 158 159 158 156 155 154
339 353 1 0 358 6 32 38 39 39 37 34 31 28 25 24 27 27 27 39 48 29 2 350 348 356 9 21 38 70 70 43 37 48 56 57 60 51 34 34 65 76 67 62 60 45 29 31 33 31 32 38 45 57 71 79 85 91 91 78 63 55 51 48 46 48 53 59 65 78 103 130 139 137 133 133 140 149 155 158 159 162 163 161 159 159 159
338 350 359 358 357 353 352 1 19 32 31 25 22 23 22 24 27 29 32 38 41 34 22 7 351 339 351 16 36 61 70 41 7 8 36 38 40 48 43 31 39 52 54 60 67 62 44 36 33 27 23 29 42 59 81 92 93 97 100 89 68 57 54 51 48 50 57 62 66 72 89 120 138 139 136 139 146 153 157 160 164 167 168 166 165 164 162
341 5 360 355 355 1 1 354 358 18 27 25 19 15 15 19 27 29 26 24 20 14 12 10 358 340 349 33 44 51 57 49 42 63 82 67 50 52 42 8 355 26 31 34 111 110 90 56 34 20 12 14 29 46 73 107 122 124 123 112 81 61 57 55 51 53 61 68 71 72 84 113 137 142 142 145 151 156 160 164 168 170 170 169 168 165 158
345 342 343 348 353 1 11 13 10 18 30 32 26 18 18 28 40 41 32 24 18 16 16 18 17 8 6 32 45 48 49 51 56 65 73 76 69 62 50 23 1 354 339 302 236 191 166 32 20 10 359 359 15 33 50 87 127 140 144 142 102 61 58 56 53 55 64 73 75 74 79 101 130 142 145 148 153 159 164 168 169 169 168 167 164 158 152
330 315 310 329 351 2 9 12 14 24 36 35 29 32 42 51 53 45 30 17 11 9 9 15 22 19 4 355 8 27 28 19 16 22 35 44 36 27 39 62 63 71 79 19 345 325 320 327 325 324 327 335 3 36 43 54 89 133 159 175 174 61 49 51 54 58 64 74 81 82 83 95 118 132 138 145 154 161 166 168 169 169 168 165 160 156 154
349 348 329 320 333 353 357 349 355 12 22 19 20 35 56 58 42 24 23 23 20 18 20 37 46 35 17 360 353 352 343 341 346 351 357 7 10 360 313 209 73 76 72 349 344 332 312 303 298 302 307 295 238 191 93 62 77 122 171 194 199 199 40 39 50 59 64 72 83 89 95 104 117 128 135 144 154 162 166 168 169 168 165 159 156 157 159
9 31 12 351 345 349 348 343 339 343 352 356 356 354 3 14 6 2 12 22 22 21 29 53 70 56 40 26 11 348 313 299 304 310 309 304 303 296 276 274 284 278 269 272 273 266 270 282 288 280 255 238 217 193 173 150 122 113 123 177 198 201 200 115 42 56 70 81 90 98 107 117 127 135 142 149 155 158 159 157 156 156 155 152 152 153 155
270 290 332 345 341 331 334 344 351 343 336 343 344 331 326 353 16 11 6 12 18 22 28 42 61 66 59 45 26 17 4 320 285 273 273 272 262 247 245 270 280 276 268 262 261 264 268 274 278 265 232 208 187 179 194 211 178 144 128 143 199 208 206 202 200 187 99 104 108 112 120 132 141 147 151 152 152 151 147 142 141 147 152 153 153 152 151
283 292 303 320 321 318 325 340 358 359 336 323 319 317 318 337 13 12 6 9 18 23 27 34 41 47 50 45 35 27 18 9 354 306 307 358 302 246 255 282 291 290 274 254 259 266 254 245 251 253 235 206 189 194 208 216 198 183 177 171 183 200 204 200 194 196 210 195 156 140 138 145 154 159 161 158 155 153 149 144 140 142 147 152 153 152 149
275 288 292 301 315 327 335 338 345 355 350 332 320 316 317 325 346 356 358 9 22 26 29 34 40 39 35 36 38 28 10 10 21 41 52 40 16 327 284 279 285 289 275 256 257 256 240 230 237 246 243 232 219 212 211 213 220 222 218 204 183 181 189 192 190 190 200 212 198 176 165 161 162 165 167 166 163 162 161 159 153 149 150 152 154 154 152
272 278 280 285 303 327 337 338 335 345 2 6 355 335 327 332 341 340 337 351 15 24 26 30 35 35 30 30 32 24 7 9 20 30 34 30 16 4 354 341 328 321 306 274 250 243 242 244 249 252 255 251 235 223 220 225 234 239 243 239 213 184 176 179 183 185 191 204 210 199 186 177 171 170 173 175 174 171 170 168 166 162 160 159 158 158 157
268 270 271 274 282 297 310 317 316 313 323 338 340 331 328 331 331 324 320 329 348 6 16 22 25 24 22 23 24 24 21 22 27 31 32 25 13 7 3 1 358 356 357 3 182 207 237 249 251 255 263 261 242 227 226 232 236 236 234 230 216 190 172 167 172 179 185 193 200 199 192 187 183 182 184 186 183 178 173 169 167 166 165 164 163 163 164
261 259 262 268 276 282 286 297 308 309 306 307 311 316 320 322 319 316 319 325 331 339 359 12 15 17 17 13 9 13 22 29 31 32 29 7 355 360 6 10 12 17 23 27 30 102 157 167 181 194 207 206 197 190 192 208 219 216 200 188 185 176 162 157 162 171 178 182 185 188 189 188 189 190 193 192 188 181 175 171 169 168 167 164 162 164 166
Height
1418 1417 1415 1415 1415 1412 1412 1409 1406 1406 1407 1407 1408 1407 1405 1404 1403 1399 1397 1402 1402 1394 1390 1388 1383 1379 1377 1374 1372 1369 1365 1362 1360 1361 1363 1365 1369 1373 1376 1378 1379 1382 1385 1389 1393 1397 1401 1405 1409 1413 1417 1420 1424 1427 1430 1433 1437 1440 1443 1447 1450 1453 1455 1458 1460 1463 1466 1469 1471 1473 1475 1477 1479 1480 1482 1483 1483 1483 1484 1485 1486 1487 1488 1488 1489 1489 1489
1418 1416 1415 1415 1414 1411 1410 1410 1410 1410 1407 1406 1407 1407 1407 1405 1402 1401 1402 1402 1399 1394 1392 1389 1384 1381 1378 1374 1372 1370 1366 1363 1361 1362 1363 1365 1368 1371 1375 1377 1379 1381 1385 1388 1392 1396 1400 1404 1408 1412 1415 1419 1423 1426 1429 1433 1437 1440 1443 1446 1449 1452 1454 1457 1459 1462 1465 1467 1469 1471 1473 1475 1477 1479 1480 1481 1481 1482 1483 1484 1485 1485 1487 1487 1488 1489 1489
1416 1415 1414 1414 1412 1412 1412 1410 1412 1412 1406 1405 1407 1408 1408 1407 1405 1404 1402 1399 1396 1393 1391 1389 1385 1381 1377 1374 1373 1371 1367 1365 1364 1364 1365 1366 1369 1372 1375 1379 1381 1383 1386 1390 1393 1397 1400 1403 1406 1410 1414 1418 1421 1425 1429 1432 1436 1439 1442 1445 1448 1450 1453 1455 1458 1461 1463 1465 1467 1469 1471 1473 1475 1477 1479 1480 1480 1481 1482 1483 1484 1484 1485 1486 1487 1488 1488
1414 1414 1414 1412 1413 1414 1411 1407 1410 1413 1410 1408 1410 1410 1408 1407 1405 1403 1400 1398 1397 1393 1389 1389 1386 1382 1379 1376 1374 1372 1369 1367 1366 1366 1368 1369 1371 1373 1376 1380 1382 1385 1387 1390 1394 1398 1401 1405 1408 1412 1415 1418 1421 1425 1428 1431 1435 1438 1441 1444 1446 1449 1452 1455 1457 1460 1462 1464 1465 1467 1469 1472 1474 1476 1477 1478 1479 1479 1481 1482 1483 1483 1484 1485 1486 1486 1487
1412 1414 1415 1412 1411 1413 1411 1408 1411 1415 1414 1413 1412 1410 1408 1406 1404 1403 1401 1399 1397 1393 1390 1389 1386 1384 1382 1380 1378 1375 1372 1370 1370 1370 1370 1371 1373 1375 1378 1381 1384 1386 1389 1392 1396 1400 1403 1407 1411 1414 1417 1420 1423 1426 1428 1431 1434 1437 1440 1443 1446 1449 1451 1454 1456 1459 1461 1462 1464 1466 1469 1471 1473 1474 1475 1476 1477 1478 1479 1481 1481 1482 1483 1484 1484 1485 1486
1411 1414 1415 1412 1412 1414 1413 1412 1412 1413 1414 1413 1410 1409 1408 1407 1405 1403 1401 1398 1395 1392 1390 1388 1387 1385 1384 1383 1381 1378 1375 1374 1373 1373 1373 1374 1375 1377 1380 1382 1385 1388 1390 1393 1397 1400 1404 1407 1411 1414 1418 1421 1424 1427 1430 1433 1435 1438 1440 1442 1445 1448 1451 1453 1455 1458 1460 1462 1464 1466 1468 1470 1471 1472 1473 1475 1476 1477 1478 1479 1480 1481 1482 1482 1483 1484 1485
1416 1416 1413 1411 1416 1416 1412 1411 1411 1411 1411 1412 1411 1410 1410 1408 1406 1404 1401 1398 1395 1393 1390 1388 1386 1384 1383 1382 1381 1379 1377 1376 1376 1377 1377 1378 1378 1380 1382 1384 1386 1389 1392 1395 1398 1401 1404 1407 1410 1413 1416 1419 1422 1426 1429 1432 1435 1437 1439 1441 1444 1447 1449 1452 1454 1456 1459 1461 1463 1465 1466 1468 1470 1471 1472 1473 1474 1475 1476 1477 1478 1480 1480 1481 1482 1484 1485
1421 1416 1412 1412 1417 1416 1411 1409 1410 1410 1411 1412 1411 1411 1410 1409 1407 1404 1403 1400 1396 1394 1391 1388 1386 1383 1382 1381 1381 1380 1379 1379 1379 1380 1380 1381 1382 1383 1384 1386 1388 1390 1393 1396 1399 1402 1405 1408 1411 1414 1417 1419 1421 1424 1426 1429 1431 1433 1436 1438 1441 1443 1446 1449 1452 1454 1457 1459 1461 1463 1465 1467 1468 1469 1470 1471 1472 1474 1475 1476 1477 1478 1479 1480 1481 1483 1484
1423 1419 1417 1416 1416 1414 1412 1410 1411 1412 1412 1412 1411 1409 1409 1409 1408 1406 1404 1401 1398 1395 1392 1389 1386 1383 1381 1383 1384 1383 1382 1382 1384 1384 1384 1384 1385 1385 1387 1388 1390 1393 1395 1397 1400 1403 1405 1408 1411 1414 1417 1420 1422 1424 1426 1428 1430 1432 1434 1436 1438 1440 1442 1445 1448 1451 1453 1456 1458 1460 1462 1464 1466 1467 1469 1470 1471 1472 1473 1474 1476 1477 1478 1479 1480 1482 1483
1425 1421 1417 1415 1415 1416 1414 1411 1412 1413 1411 1411 1410 1407 1406 1407 1408 1407 1405 1402 1400 1397 1393 1391 1386 1382 1386 1393 1392 1387 1386 1387 1388 1387 1386 1386 1386 1387 1388 1389 1391 1394 1396 1399 1401 1404 1406 1409 1411 1413 1416 1418 1420 1422 1423 1425 1427 1429 1432 1434 1436 1439 1441 1443 1445 1447 1450 1453 1455 1458 1460 1462 1464 1466 1467 1469 1470 1471 1472 1473 1475 1476 1476 1478 1479 1481 1483
1427 1423 1417 1416 1418 1417 1416 1415 1414 1412 1411 1412 1410 1407 1407 1409 1407 1406 1404 1403 1401 1398 1395 1392 1387 1386 1397 1404 1397 1391 1392 1393 1392 1391 1389 1388 1388 1388 1389 1391 1392 1394 1396 1399 1401 1404 1406 1408 1411 1413 1415 1417 1418 1420 1421 1422 1424 1426 1429 1432 1435 1438 1440 1441 1443 1445 1448 1451 1453 1455 1458 1460 1463 1465 1466 1468 1469 1470 1471 1472 1473 1474 1475 1477 1478 1480 1482
1433 1431 1424 1422 1420 1417 1418 1420 1416 1412 1411 1412 1411 1412 1413 1412 1408 1406 1404 1402 1401 1399 1396 1393 1389 1393 1404 1406 1399 1397 1399 1398 1395 1394 1392 1391 1391 1391 1392 1393 1394 1396 1398 1400 1402 1404 1406 1408 1410 1413 1415 1416 1418 1420 1422 1423 1423 1425 1428 1432 1434 1437 1438 1440 1442 1444 1446 1449 1451 1453 1456 1459 1461 1463 1465 1467 1468 1469 1470 1471 1472 1473 1474 1476 1478 1479 1480
1433 1432 1427 1425 1422 1418 1418 1419 1415 1411 1411 1411 1413 1417 1417 1414 1411 1409 1406 1404 1402 1400 1398 1395 1394 1400 1405 1405 1403 1403 1402 1399 1397 1396 1394 1393 1394 1394 1394 1396 1397 1398 1400 1402 1403 1405 1407 1409 1411 1413 1415 1417 1419 1421 1424 1425 1425 1426 1428 1430 1433 1435 1438 1440 1442 1443 1445 1448 1450 1452 1455 1457 1459 1461 1464 1466 1467 1468 1469 1470 1471 1472 1474 1476 1477 1478 1479
1436 1434 1427 1424 1423 1420 1418 1417 1413 1411 1411 1412 1415 1417 1415 1414 1412 1409 1407 1406 1404 1403 1401 1400 1401 1405 1407 1405 1405 1405 1403 1401 1399 1397 1395 1395 1395 1396 1397 1398 1399 1400 1401 1403 1405 1407 1408 1411 1412 1414 1416 1418 1420 1422 1424 1426 1428 1428 1429 1430 1432 1435 1437 1440 1441 1442 1444 1447 1449 1451 1454 1456 1457 1460 1462 1464 1466 1467 1468 1469 1470 1472 1473 1475 1476 1477 1478
1436 1433 1426 1422 1423 1421 1419 1417 1414 1412 1413 1415 1416 1416 1414 1414 1412 1410 1409 1408 1406 1405 1404 1403 1406 1408 1408 1407 1407 1406 1404 1403 1401 1398 1398 1397 1397 1398 1399 1400 1401 1402 1403 1404 1406 1408 1410 1411 1413 1415 1417 1419 1421 1423 1425 1427 1429 1430 1431 1432 1433 1435 1437 1439 1440 1441 1443 1446 1448 1450 1452 1454 1456 1458 1460 1462 1464 1466 1467 1469 1470 1471 1472 1473 1474 1476 1477
1431 1431 1428 1426 1425 1423 1420 1419 1418 1416 1416 1416 1416 1415 1414 1414 1412 1411 1410 1409 1408 1407 1406 1406 1408 1409 1409 1409 1408 1407 1406 1404 1401 1400 1399 1398 1399 1400 1401 1402 1403 1404 1405 1406 1407 1409 1411 1413 1414 1416 1417 1420 1421 1422 1423 1425 1427 1430 1432 1433 1434 1435 1436 1437 1439 1440 1442 1445 1447 1449 1451 1453 1455 1456 1458 1460 1462 1465 1466 1468 1469 1470 1471 1472 1473 1474 1476
1431 1432 1431 1428 1425 1423 1421 1421 1420 1419 1418 1417 1416 1416 1415 1414 1413 1413 1412 1411 1411 1410 1409 1409 1409 1410 1410 1410 1409 1408 1407 1405 1403 1402 1401 1401 1402 1402 1403 1404 1405 1406 1407 1408 1409 1411 1412 1414 1416 1417 1418 1420 1421 1421 1421 1423 1426 1429 1431 1433 1434 1434 1434 1436 1438 1440 1442 1444 1447 1449 1451 1453 1454 1456 1457 1459 1461 1463 1465 1466 1467 1468 1470 1471 1472 1473 1474
1431 1431 1430 1427 1425 1424 1422 1422 1421 1421 1420 1419 1418 1417 1416 1415 1415 1414 1414 1414 1413 1413 1411 1411 1411 1411 1411 1410 1409 1408 1408 1407 1406 1405 1404 1404 1404 1405 1406 1407 1407 1408 1409 1410 1411 1413 1414 1415 1417 1418 1419 1420 1421 1421 1422 1424 1426 1428 1431 1432 1433 1433 1433 1435 1437 1439 1442 1445 1447 1450 1452 1453 1454 1455 1456 1458 1460 1462 1464 1465 1466 1468 1469 1470 1471 1472 1473
1433 1433 1432 1429 1427 1426 1424 1424 1424 1422 1422 1421 1420 1419 1419 1418 1417 1416 1416 1415 1415 1414 1413 1412 1412 1412 1412 1411 1410 1409 1409 1410 1410 1409 1408 1407 1407 1408 1408 1409 1410 1411 1411 1412 1413 1414 1415 1417 1418 1419 1420 1421 1422 1423 1424 1425 1427 1429 1431 1432 1432 1433 1435 1437 1438 1440 1443 1445 1448 1450 1452 1453 1454 1454 1456 1458 1460 1462 1463 1465 1466 1467 1468 1470 1470 1471 1472
1435 1435 1434 1431 1429 1428 1427 1427 1426 1425 1424 1423 1422 1421 1420 1419 1418 1417 1417 1417 1417 1416 1415 1414 1413 1413 1414 1414 1414 1413 1413 1414 1414 1412 1411 1411 1411 1411 1412 1412 1413 1413 1414 1415 1416 1416 1418 1419 1420 1420 1421 1422 1424 1425 1426 1427 1429 1430 1431 1433 1434 1435 1439 1441 1442 1443 1445 1447 1449 1450 1452 1453 1453 1454 1456 1458 1460 1461 1463 1464 1466 1467 1469 1470 1471 1471 1472
1436 1436 1434 1432 1430 1429 1429 1429 1429 1428 1427 1425 1424 1422 1421 1420 1419 1419 1419 1419 1419 1418 1418 1417 1416 1415 1416 1418 1417 1417 1417 1417 1417 1417 1416 1415 1415 1415 1416 1416 1416 1416 1417 1418 1418 1419 1421 1422 1422 1422 1423 1424 1425 1427 1428 1429 1430 1431 1433 1435 1436 1437 1440 1442 1444 1446 1447 1449 1450 1450 1451 1452 1452 1453 1455 1457 1459 1460 1462 1463 1465 1467 1468 1470 1470 1471 1472
1440 1440 1438 1436 1435 1435 1434 1432 1431 1430 1429 1428 1426 1425 1425 1423 1422 1422 1422 1421 1421 1421 1420 1420 1419 1419 1420 1421 1420 1420 1420 1421 1422 1422 1420 1419 1419 1420 1419 1419 1419 1419 1420 1421 1421 1422 1423 1423 1424 1424 1425 1426 1427 1428 1429 1430 1432 1433 1434 1436 1437 1438 1440 1443 1444 1446 1448 1449 1449 1450 1451 1452 1452 1453 1455 1456 1458 1460 1461 1463 1465 1466 1467 1468 1469 1470 1471
1444 1442 1440 1439 1439 1438 1437 1435 1434 1433 1431 1430 1430 1429 1429 1427 1425 1425 1424 1423 1423 1423 1423 1423 1424 1424 1423 1423 1423 1423 1424 1425 1426 1426 1425 1423 1423 1423 1423 1422 1422 1422 1423 1423 1424 1424 1425 1426 1426 1426 1427 1428 1429 1430 1431 1432 1433 1434 1435 1436 1438 1439 1441 1443 1444 1446 1448 1449 1449 1450 1451 1452 1452 1453 1455 1456 1457 1459 1460 1462 1464 1465 1466 1467 1468 1469 1469
1444 1442 1441 1441 1440 1439 1439 1438 1437 1435 1434 1433 1432 1431 1430 1429 1428 1428 1427 1425 1425 1426 1426 1427 1427 1427 1426 1425 1425 1425 1426 1428 1429 1430 1429 1426 1425 1426 1426 1425 1425 1426 1426 1426 1426 1427 1428 1428 1429 1429 1429 1430 1431 1432 1433 1434 1435 1436 1437 1438 1439 1440 1442 1443 1445 1446 1448 1449 1450 1451 1452 1452 1453 1454 1455 1456 1457 1458 1460 1462 1463 1464 1465 1466 1466 1467 1467
1445 1444 1444 1443 1442 1442 1442 1441 1439 1438 1436 1435 1434 1432 1431 1431 1430 1430 1429 1428 1428 1429 1429 1430 1430 1429 1429 1428 1428 1428 1428 1429 1430 1431 1431 1429 1428 1428 1428 1428 1428 1428 1428 1428 1429 1429 1430 1430 1431 1431 1431 1432 1433 1434 1435 1436 1437 1438 1438 1439 1440 1441 1442 1444 1445 1447 1448 1449 1450 1451 1452 1452 1453 1453 1454 1455 1456 1458 1459 1460 1461 1462 1463 1464 1465 1465 1466
1447 1447 1446 1445 1444 1444 1444 1443 1442 1441 1439 1437 1436 1435 1434 1432 1431 1431 1431 1431 1431 1432 1432 1432 1432 1432 1431 1431 1430 1430 1431 1431 1432 1432 1432 1431 1431 1431 1430 1430 1430 1430 1430 1430 1430 1430 1431 1432 1432 1433 1433 1434 1434 1435 1436 1437 1438 1439 1440 1441 1442 1442 1444 1445 1446 1447 1448 1449 1449 1450 1451 1451 1452 1453 1454 1455 1456 1457 1458 1459 1460 1461 1462 1462 1463 1464 1464
1448 1448 1448 1447 1447 1447 1446 1445 1445 1444 1443 1441 1439 1437 1436 1435 1434 1434 1434 1434 1434 1434 1435 1435 1435 1434 1434 1433 1433 1433 1433 1434 1434 1434 1434 1434 1434 1433 1433 1433 1432 1432 1432 1432 1432 1432 1432 1433 1433 1433 1434 1435 1435 1436 1437 1438 1439 1440 1441 1442 1443 1444 1445 1446 1447 1447 1448 1448 1449 1450 1450 1451 1452 1453 1454 1455 1456 1457 1458 1458 1459 1460 1460 1461 1462 1463 1463
1449 1449 1449 1449 1449 1449 1449 1448 1448 1447 1445 1443 1442 1440 1439 1438 1437 1437 1437 1437 1437 1437 1437 1437 1437 1437 1436 1436 1436 1436 1436 1436 1436 1436 1436 1436 1436 1436 1436 1435 1435 1434 1434 1433 1434 1434 1434 1434 1435 1435 1435 1436 1436 1437 1437 1438 1439 1440 1441 1442 1443 1444 1445 1445 1446 1447 1447 1448 1449 1449 1450 1451 1452 1453 1454 1454 1455 1456 1457 1457 1458 1459 1459 1460 1461 1462 1463
1452 1451 1451 1451 1452 1452 1451 1451 1450 1448 1447 1445 1444 1443 1442 1441 1439 1439 1439 1439 1439 1439 1439 1438 1438 1439 1439 1439 1439 1439 1439 1439 1438 1438 1438 1439 1439 1438 1438 1437 1437 1436 1436 1435 1436 1436 1436 1436 1436 1437 1437 1438 1438 1438 1439 1439 1440 1440 1441 1442 1443 1444 1444 1445 1445 1446 1447 1447 1448 1449 1450 1450 1451 1452 1453 1454 1455 1456 1456 1457 1458 1458 1459 1459 1460 1461 1462
1454 1453 1453 1453 1453 1453 1452 1451 1451 1450 1449 1448 1447 1445 1444 1443 1442 1441 1441 1441 1440 1441 1441 1441 1441 1441 1441 1441 1441 1441 1441 1441 1441 1441 1441 1441 1441 1440 1440 1440 1439 1438 1437 1437 1438 1438 1438 1438 1439 1439 1440 1440 1440 1440 1440 1440 1441 1441 1441 1442 1442 1443 1443 1444 1445 1446 1447 1448 1448 1449 1450 1450 1451 1452 1453 1453 1454 1455 1456 1456 1457 1457 1458 1459 1460 1461 1462
1456 1456 1455 1455 1454 1454 1453 1452 1452 1451 1450 1450 1449 1448 1446 1445 1444 1444 1443 1443 1442 1442 1442 1442 1442 1442 1442 1442 1443 1443 1443 1443 1443 1443 1443 1443 1443 1443 1443 1442 1441 1440 1440 1440 1440 1440 1441 1441 1441 1441 1442 1442 1442 1442 1442 1442 1442 1442 1442 1443 1443 1443 1444 1444 1445 1446 1447 1448 1449 1449 1450 1450 1451 1451 1452 1453 1453 1454 1455 1456 1456 1457 1458 1459 1460 1462 1463
1458 1458 1457 1457 1456 1455 1455 1454 1454 1453 1452 1451 1451 1449 1449 1448 1447 1446 1446 1445 1445 1445 1444 1444 1444 1444 1444 1444 1445 1445 1445 1445 1445 1445 1445 1446 1446 1446 1445 1445 1444 1443 1443 1443 1443 1443 1443 1443 1443 1443 1443 1444 1444 1444 1444 1444 1444 1443 1444 1443 1443 1444 1444 1445 1446 1447 1447 1448 1449 1449 1450 1450 1451 1451 1452 1452 1453 1453 1454 1455 1456 1457 1458 1460 1461 1463 1464
1460 1459 1459 1459 1458 1457 1457 1456 1455 1455 1454 1453 1452 1452 1451 1451 1450 1449 1449 1448 1448 1447 1446 1446 1446 1446 1446 1446 1447 1447 1447 1447 1447 1448 1448 1448 1448 1448 1448 1447 1447 1446 1446 1446 1445 1446 1445 1445 1445 1445 1445 1445 1445 1445 1445 1445 1445 1445 1445 1445 1444 1445 1445 1446 1446 1447 1447 1448 1449 1449 1450 1450 1451 1451 1452 1452 1453 1453 1454 1455 1456 1457 1459 1460 1462 1463 1465
1462 1461 1461 1461 1460 1459 1459 1458 1457 1457 1456 1455 1454 1454 1454 1453 1452 1452 1451 1450 1449 1448 1448 1448 1448 1447 1447 1448 1448 1449 1449 1449 1449 1450 1450 1451 1451 1451 1450 1450 1449 1449 1448 1448 1448 1448 1448 1447 1447 1447 1446 1446 1446 1446 1446 1446 1446 1446 1446 1446 1446 1446 1446 1447 1447 1448 1448 1449 1449 1449 1450 1450 1451 1451 1451 1452 1453 1453 1454 1455 1456 1457 1459 1460 1462 1464 1467
1463 1463 1463 1462 1462 1461 1461 1460 1459 1459 1458 1457 1457 1456 1456 1455 1455 1454 1453 1452 1451 1451 1450 1450 1449 1449 1449 1449 1450 1450 1450 1451 1451 1451 1452 1453 1453 1453 1453 1453 1452 1452 1451 1451 1451 1450 1450 1449 1449 1448 1448 1448 1447 1447 1447 1447 1447 1447 1447 1447 1447 1448 1448 1448 1449 1449 1449 1450 1450 1450 1450 1451 1451 1451 1452 1452 1453 1454 1455 1456 1457 1458 1460 1461 1463 1465 1468
1465 1465 1464 1464 1463 1463 1463 1462 1462 1461 1460 1460 1459 1458 1458 1457 1457 1456 1455 1455 1454 1453 1453 1452 1451 1451 1450 1451 1451 1451 1452 1452 1452 1453 1453 1454 1454 1454 1455 1455 1455 1454 1454 1454 1453 1452 1452 1451 1451 1450 1450 1449 1449 1448 1448 1448 1448 1449 1449 1449 1449 1449 1450 1450 1450 1450 1450 1451 1451 1451 1451 1451 1452 1452 1453 1453 1454 1455 1456 1457 1459 1460 1462 1463 1465 1466 1469
1467 1466 1466 1465 1465 1465 1464 1464 1464 1463 1462 1462 1461 1460 1460 1459 1459 1458 1458 1457 1456 1455 1454 1454 1453 1452 1452 1452 1452 1452 1453 1453 1453 1453 1454 1454 1455 1455 1456 1456 1456 1456 1455 1455 1454 1454 1453 1453 1453 1452 1452 1451 1451 1450 1450 1450 1450 1450 1451 1451 1451 1451 1451 1451 1451 1452 1452 1451 1452 1452 1452 1452 1453 1453 1453 1454 1455 1456 1458 1459 1461 1462 1464 1465 1466 1468 1470
1468 1468 1467 1467 1467 1466 1466 1466 1465 1464 1464 1463 1462 1462 1461 1461 1460 1460 1459 1458 1457 1457 1456 1455 1455 1454 1454 1454 1454 1454 1454 1454 1454 1454 1454 1454 1455 1456 1456 1456 1456 1456 1456 1455 1455 1455 1455 1454 1454 1454 1453 1453 1452 1452 1452 1452 1452 1452 1452 1453 1453 1453 1453 1453 1453 1453 1453 1453 1453 1453 1453 1453 1454 1454 1454 1455 1456 1458 1459 1461 1462 1464 1466 1467 1468 1470 1471
1469 1469 1469 1468 1468 1467 1467 1466 1466 1465 1464 1464 1463 1463 1462 1462 1461 1460 1460 1459 1459 1458 1457 1457 1457 1456 1456 1455 1455 1455 1455 1454 1454 1455 1455 1455 1455 1456 1456 1456 1456 1456 1456 1456 1456 1456 1456 1455 1455 1455 1454 1454 1454 1453 1453 1453 1453 1454 1454 1454 1454 1454 1454 1454 1454 1454 1454 1454 1454 1454 1454 1454 1455 1455 1456 1457 1458 1459 1461 1462 1464 1466 1467 1469 1470 1472 1473
1470 1470 1469 1469 1468 1468 1467 1467 1466 1466 1465 1465 1464 1464 1463 1462 1462 1461 1460 1460 1460 1459 1459 1458 1458 1458 1457 1457 1456 1456 1456 1455 1455 1455 1456 1456 1456 1456 1457 1457 1457 1457 1457 1457 1456 1456 1456 1456 1456 1456 1455 1455 1455 1455 1455 1455 1455 1455 1455 1456 1456 1456 1455 1455 1455 1455 1455 1455 1455 1455 1455 1455 1456 1457 1457 1458 1459 1461 1462 1464 1465 1467 1469 1470 1472 1474 1475
1470 1470 1470 1469 1469 1468 1468 1468 1467 1467 1466 1466 1465 1464 1464 1463 1463 1462 1461 1461 1461 1460 1460 1460 1459 1459 1458 1458 1458 1457 1457 1457 1457 1457 1457 1457 1457 1457 1457 1457 1458 1458 1458 1458 1457 1457 1457 1457 1457 1457 1457 1457 1456 1456 1456 1456 1457 1457 1457 1457 1457 1457 1457 1457 1456 1456 1456 1456 1456 1456 1456 1457 1457 1458 1459 1460 1461 1462 1464 1465 1467 1469 1470 1472 1474 1475 1477
1471 1470 1470 1470 1469 1469 1468 1468 1468 1467 1467 1466 1466 1465 1465 1464 1463 1463 1463 1462 1462 1461 1460 1460 1460 1460 1459 1459 1459 1459 1458 1458 1458 1458 1458 1458 1458 1458 1458 1458 1458 1459 1459 1459 1458 1458 1458 1458 1458 1458 1458 1458 1458 1458 1457 1457 1458 1458 1458 1458 1459 1459 1459 1459 1458 1458 1458 1458 1458 1458 1458 1458 1459 1460 1460 1461 1463 1464 1466 1467 1469 1470 1472 1474 1475 1477 1479
1471 1471 1470 1470 1470 1469 1469 1468 1468 1468 1467 1467 1466 1466 1465 1465 1464 1464 1463 1463 1462 1461 1461 1460 1460 1460 1460 1460 1460 1460 1460 1460 1459 1459 1459 1459 1459 1459 1459 1459 1459 1459 1459 1459 1459 1459 1459 1459 1459 1459 1459 1459 1459 1459 1459 1459 1459 1459 1459 1460 1460 1460 1460 1460 1460 1460 1459 1459 1459 1459 1460 1460 1461 1461 1462 1463 1465 1467 1468 1470 1471 1473 1474 1475 1477 1479 1481
1471 1471 1471 1470 1470 1470 1469 1469 1469 1468 1468 1467 1467 1467 1466 1465 1465 1464 1464 1463 1463 1462 1461 1461 1461 1460 1460 1460 1460 1460 1460 1460 1460 1460 1460 1459 1459 1459 1460 1460 1460 1460 1460 1460 1460 1460 1460 1460 1459 1460 1460 1460 1460 1460 1460 1460 1460 1460 1460 1460 1461 1461 1461 1461 1461 1461 1461 1461 1461 1461 1461 1462 1462 1463 1464 1466 1467 1469 1471 1472 1473 1475 1476 1477 1479 1480 1482
1471 1471 1471 1470 1470 1470 1470 1469 1469 1469 1469 1468 1468 1467 1467 1466 1466 1465 1465 1464 1463 1462 1461 1461 1461 1461 1461 1460 1460 1460 1460 1460 1460 1460 1460 1460 1460 1460 1461 1461 1461 1461 1461 1461 1461 1461 1461 1460 1460 1460 1460 1460 1460 1460 1461 1461 1461 1461 1461 1461 1461 1462 1462 1462 1462 1462 1463 1463 1463 1463 1463 1464 1464 1465 1467 1468 1470 1471 1473 1474 1475 1476 1477 1479 1480 1482 1484
1471 1471 1471 1471 1470 1470 1470 1469 1469 1469 1469 1469 1469 1468 1468 1467 1467 1466 1466 1465 1464 1463 1462 1462 1462 1462 1462 1461 1461 1461 1461 1461 1461 1461 1461 1461 1461 1461 1461 1461 1461 1461 1461 1461 1461 1461 1461 1461 1461 1461 1461 1461 1461 1461 1461 1461 1461 1461 1461 1462 1462 1463 1463 1463 1463 1463 1464 1464 1465 1465 1465 1466 1467 1468 1469 1470 1472 1473 1474 1475 1477 1478 1479 1480 1482 1484 1485
1471 1471 1471 1471 1471 1470 1470 1470 1469 1469 1469 1469 1469 1468 1468 1468 1467 1467 1466 1466 1465 1464 1463 1463 1462 1462 1462 1462 1462 1462 1461 1461 1461 1461 1461 1461 1461 1461 1461 1461 1461 1461 1461 1461 1461 1461 1461 1461 1461 1461 1461 1461 1461 1461 1461 1461 1461 1461 1462 1462 1463 1463 1464 1464 1464 1465 1465 1466 1466 1467 1468 1468 1469 1470 1472 1473 1474 1475 1476 1477 1478 1479 1481 1482 1484 1486 1487
1471 1471 1471 1471 1471 1470 1470 1470 1470 1470 1469 1469 1469 1468 1468 1468 1468 1467 1467 1467 1466 1465 1464 1464 1463 1463 1463 1463 1463 1462 1462 1462 1462 1462 1462 1462 1462 1462 1462 1462 1462 1461 1461 1461 1461 1461 1461 1461 1461 1461 1461 1461 1460 1461 1461 1462 1462 1462 1462 1462 1463 1463 1464 1465 1465 1466 1466 1467 1468 1468 1469 1470 1471 1472 1474 1475 1476 1477 1478 1479 1480 1481 1482 1484 1486 1487 1489
1471 1471 1471 1471 1471 1471 1470 1470 1470 1470 1470 1469 1469 1469 1468 1468 1468 1468 1468 1467 1467 1466 1465 1465 1464 1464 1464 1464 1463 1463 1463 1463 1462 1462 1462 1462 1462 1462 1462 1462 1462 1462 1461 1461 1461 1461 1461 1461 1460 1461 1461 1460 1460 1461 1461 1461 1462 1462 1462 1462 1463 1463 1464 1464 1466 1466 1467 1468 1468 1469 1471 1472 1473 1474 1475 1476 1477 1479 1480 1481 1482 1483 1484 1486 1487 1489 1490
1470 1470 1471 1471 1471 1471 1470 1470 1470 1470 1470 1469 1469 1469 1469 1469 1468 1468 1468 1468 1467 1467 1466 1466 1465 1465 1465 1464 1464 1464 1464 1464 1463 1463 1463 1463 1463 1463 1463 1462 1462 1461 1461 1461 1461 1461 1460 1460 1460 1460 1460 1460 1460 1461 1461 1461 1461 1462 1462 1462 1463 1463 1463 1464 1465 1466 1467 1468 1469 1470 1471 1472 1473 1475 1476 1477 1478 1479 1481 1482 1483 1485 1486 1487 1489 1490 1491
1470 1470 1470 1470 1471 1471 1471 1470 1470 1470 1470 1470 1469 1469 1469 1469 1468 1468 1468 1468 1468 1467 1467 1466 1466 1465 1465 1465 1465 1465 1465 1464 1464 1464 1464 1464 1464 1463 1463 1463 1462 1462 1461 1461 1461 1461 1460 1460 1460 1460 1460 1460 1460 1460 1460 1461 1461 1461 1462 1462 1462 1462 1463 1463 1464 1466 1467 1468 1469 1470 1471 1473 1474 1475 1476 1477 1479 1480 1481 1482 1484 1486 1487 1488 1490 1491 1492
1470 1470 1470 1470 1470 1470 1470 1470 1470 1470 1470 1470 1470 1469 1469 1469 1468 1468 1468 1468 1468 1467 1467 1467 1466 1466 1466 1465 1465 1465 1465 1465 1465 1464 1464 1464 1464 1464 1463 1463 1462 1462 1462 1461 1461 1461 1461 1460 1460 1460 1460 1460 1460 1460 1460 1461 1461 1461 1461 1461 1462 1462 1462 1463 1464 1465 1466 1467 1469 1470 1471 1473 1474 1475 1476 1477 1478 1480 1481 1482 1484 1486 1488 1489 1490 1491 1492